Tracking 30685 objects as of 17-Jun-2025
HD Live streaming from Space Station
objects crossing your sky now

COSMOS 1275 DEB

Track COSMOS 1275 DEB now!
10-day predictions


NORAD ID: 42166
Int'l Code: 1981-053SE
Perigee: 811.1 km
Apogee: 1,017.1 km
Inclination: 82.9 °
Period: 103.1 minutes
Semi major axis: 7285 km
RCS: Unknown
Launch date: June 4, 1981
Source: Commonwealth of Independent States (former USSR) (CIS)
Launch site: PLESETSK MISSILE AND SPACE COMPLEX (PKMTR)

Note: This is SATELLITE DEBRIS
Your satellite tracking list
Your tracking list is empty




NASA's NSSDC Master Catalog

Two Line Element Set (TLE):
1 42166U 81053SE  25163.34974268  .00002330  00000-0  15480-2 0  9994
2 42166  82.8869 174.6562 0141420 177.2589 182.9388 13.96203269584382
Source of the keplerian elements: AFSPC